Overview Statistics Trail Chart Weather Telemetry Raw packets
 

This is the latest recevied weather packets stored in our database for station/object KBTL-WX. If no packets are shown the sender has not sent any weather packets the latest 10 day(s).

<< 1 2 3 4 5 6 >>
Time Temp. Humidity Pressure Rain* Wind** Luminosity Snow
1777903243 15° C 61% 971.7 hPa 0 mm - - -
1777902318 14.44° C 65% 971.5 hPa 0 mm - - -
1777901435 13.89° C 65% 971.5 hPa 0 mm - - -
1777900518 12.78° C 65% 971.5 hPa 0 mm - - -
1777899642 12.22° C 67% 971.5 hPa 0 mm - - -
1777898718 11.67° C 73% 972.1 hPa 0 mm - - -
1777897835 11.11° C 73% 972.1 hPa 0 mm - - -
1777896918 10.56° C 73% 972.1 hPa 0 mm - - -
1777896042 10° C 73% 972.1 hPa 0 mm - - -
1777895118 8.89° C 77% 970.6 hPa 0 mm - - -
1777894231 8.89° C 80% 971.3 hPa 0 mm - - -
1777893318 8.33° C 80% 971.3 hPa 0 mm - - -
1777892438 7.78° C 80% 971.3 hPa 0 mm - - -
1777891518 7.78° C 76% 971.3 hPa 0 mm - - -
1777890636 7.78° C 79% 971.2 hPa 0 mm - - -
1777889715 8.33° C 79% 971.2 hPa 0 mm - - -
1777888836 8.33° C 79% 971.2 hPa 0 mm - - -
1777887918 8.33° C 77% 971.6 hPa 0 mm - - -
1777887036 8.33° C 76% 971.4 hPa 0 mm - - -
1777886118 7.78° C 76% 971.4 hPa 0 mm - - -
1777885242 7.78° C 77% 970.9 hPa 0 mm - - -
1777884317 7.78° C 73% 971.5 hPa 0 mm - - -
1777883429 8.33° C 73% 971.5 hPa 0 mm - - -
1777882517 8.33° C 73% 971.5 hPa 0 mm - - -
1777881640 8.33° C 77% 971.5 hPa 0 mm - - -

* Rain latest hour (hover to see other rain measurements)
** Current wind speed in m/s (hover to see current wind gust speed)